| time (UTC) | temp C | wind direction | speed KPH | gust KPH | rain 1hr cm | rain 24hr cm | rain mn cm | humidity % | barometer mb |
| 20260905073527 | -17 | 0.0 | 0.0 | 0.00 | 0.00 | 0.00 | |||
| 20260905072527 | -17 | 0.0 | 0.0 | 0.00 | 0.00 | 0.00 | |||
| 20260905072120 | -17 | 0.0 | 0.0 | 0.00 | 0.00 | 0.00 | |||
| 20260905071533 | -17 | 0.0 | 0.0 | 0.00 | 0.00 | 0.00 | |||
| 20260905071027 | -17 | 0.0 | 0.0 | 0.00 | 0.00 | 0.00 | |||
| 20260905070027 | -17 | 0.0 | 0.0 | 0.00 | 0.00 | 0.00 | |||
| 20260905065506 | -17 | 0.0 | 0.0 | 0.00 | 0.00 | 0.00 | |||
| 20260905065104 | -17 | 0.0 | 0.0 | 0.00 | 0.00 | 0.00 | |||
| 20260905064528 | -17 | 0.0 | 0.0 | 0.00 | 0.00 | 0.00 | |||
| 20260905063548 | -17 | 0.0 | 0.0 | 0.00 | 0.00 | 0.00 | |||
| 20260905063030 | -17 | 0.0 | 0.0 | 0.00 | 0.00 | 0.00 | |||
| 20260905062621 | -17 | 0.0 | 0.0 | 0.00 | 0.00 | 0.00 | |||
| 20260905062027 | -17 | 0.0 | 0.0 | 0.00 | 0.00 | 0.00 | |||
| 20260905061027 | -17 | 0.0 | 0.0 | 0.00 | 0.00 | 0.00 | |||
| 20260905060621 | -17 | 0.0 | 0.0 | 0.00 | 0.00 | 0.00 | |||
| 20260905060034 | -17 | 0.0 | 0.0 | 0.00 | 0.00 | 0.00 | |||
| 20260905055528 | -17 | 0.0 | 0.0 | 0.00 | 0.00 | 0.00 | |||
| 20260905054527 | -17 | 0.0 | 0.0 | 0.00 | 0.00 | 0.00 | |||
| 20260905054048 | -17 | 0.0 | 0.0 | 0.00 | 0.00 | 0.00 | 89 | ||
| 20260905053549 | 21 | 0.0 | 0.0 | 0.00 | 0.00 | 0.00 | 89 | 1011.0 | |
| 20260905052529 | 21 | 0.0 | 0.0 | 0.00 | 0.00 | 0.00 | 89 | 1011.2 | |
| 20260905051548 | 21 | 0.0 | 0.0 | 0.00 | 0.00 | 0.00 | 88 | 1011.2 | |
| 20260905050550 | 21 | 0.0 | 0.0 | 0.00 | 0.00 | 0.00 | 88 | 1011.3 | |
| 20260905045528 | 21 | 0.0 | 0.0 | 0.00 | 0.00 | 0.00 | 88 | 1011.5 | |
| 20260905044529 | 21 | 0.0 | 0.0 | 0.00 | 0.00 | 0.00 | 85 | 1011.3 | |
| 20260905043528 | 21 | 0.0 | 0.0 | 0.00 | 0.00 | 0.00 | 87 | 1011.3 | |
| 20260905042529 | 21 | 0.0 | 0.0 | 0.00 | 0.00 | 0.00 | 87 | 1011.4 | |
| 20260905041529 | 21 | 0.0 | 0.0 | 0.00 | 0.00 | 0.00 | 87 | 1011.6 | |
| 20260905040538 | 21 | 0.0 | 0.0 | 0.00 | 0.00 | 0.00 | 87 | 1011.7 | |
| 20260905035529 | 21 | 0.0 | 0.0 | 0.00 | 0.00 | 0.00 | 89 | 1011.7 | |
| 20260905034549 | 22 | 0.0 | 0.0 | 0.00 | 0.00 | 0.00 | 90 | 1011.6 | |
| 20260905033549 | 22 | 0.0 | 0.0 | 0.00 | 0.00 | 0.00 | 91 | 1011.5 | |
| 20260905032529 | 22 | 0.0 | 0.0 | 0.00 | 0.00 | 0.00 | 91 | 1011.5 | |
| 20260905031529 | 22 | 0.0 | 0.0 | 0.00 | 0.00 | 0.00 | 91 | 1011.5 | |
| 20260905030548 | 22 | 0.0 | 0.0 | 0.00 | 0.00 | 0.00 | 91 | 1011.7 | |
| 20260905025529 | 22 | 0.0 | 0.0 | 0.00 | 0.00 | 0.00 | 92 | 1011.5 | |
| 20260905024529 | 22 | 0.0 | 0.0 | 0.00 | 0.00 | 0.00 | 92 | 1011.6 | |
| 20260905023528 | 22 | 0.0 | 0.0 | 0.00 | 0.00 | 0.00 | 92 | 1011.6 | |
| 20260905022528 | 22 | 0.0 | 0.0 | 0.00 | 0.00 | 0.00 | 92 | 1011.7 | |
| 20260905021529 | 22 | 0.0 | 0.0 | 0.00 | 0.00 | 0.00 | 92 | 1011.6 | |
| 20260905020549 | 22 | 0.0 | 0.0 | 0.00 | 0.00 | 0.00 | 92 | 1011.7 | |
| 20260905015549 | 22 | 0.0 | 0.0 | 0.00 | 0.00 | 0.00 | 92 | 1011.4 | |
| 20260905014534 | 22 | 0.0 | 0.0 | 0.00 | 0.00 | 0.00 | 92 | 1011.3 | |
| 20260905013609 | 22 | 0.0 | 0.0 | 0.00 | 0.00 | 0.00 | 92 | 1011.2 | |
| 20260905012528 | 23 | 0.0 | 0.0 | 0.00 | 0.00 | 0.00 | 91 | 1011.2 | |
| 20260905011529 | 23 | 0.0 | 0.0 | 0.00 | 0.00 | 0.00 | 90 | 1011.0 | |
| 20260905010530 | 23 | 0.0 | 0.0 | 0.00 | 0.00 | 0.00 | 90 | 1011.0 | |
| 20260905005534 | 23 | 0.0 | 0.0 | 0.00 | 0.00 | 0.00 | 89 | 1010.7 | |
| 20260905004528 | 23 | 0.0 | 0.0 | 0.00 | 0.00 | 0.00 | 88 | 1010.6 | |
| 20260905003529 | 24 | 0.0 | 0.0 | 0.00 | 0.00 | 0.00 | 88 | 1010.5 | |
| 20260905002529 | 24 | 0.0 | 0.0 | 0.00 | 0.00 | 0.00 | 88 | 1010.5 | |
| 20260905001528 | 24 | 0.0 | 0.0 | 0.00 | 0.00 | 0.00 | 87 | 1010.4 | |
| 20260905000548 | 25 | 0.0 | 0.0 | 0.00 | 0.00 | 0.00 | 87 | 1010.8 | |
| 20260904235528 | 25 | 0.0 | 0.0 | 0.00 | 0.00 | 0.00 | 87 | 1011.0 | |
| 20260904234528 | 25 | 0.0 | 0.0 | 0.00 | 0.00 | 0.00 | 87 | 1011.1 | |
| 20260904233548 | 25 | 0.0 | 0.0 | 0.00 | 0.00 | 0.00 | 87 | 1011.0 | |
| 20260904232528 | 25 | 0.0 | 0.0 | 0.00 | 0.00 | 0.00 | 87 | 1010.6 | |
| 20260904231530 | 25 | 0.0 | 0.0 | 0.00 | 0.00 | 0.00 | 87 | 1010.6 | |
| 20260904230529 | 25 | 0.0 | 0.0 | 0.00 | 0.00 | 0.00 | 86 | 1010.0 | |
| 20260904225549 | 26 | 0.0 | 0.0 | 0.00 | 0.00 | 0.00 | 85 | 1010.5 | |
| 20260904224528 | 26 | 0.0 | 0.0 | 0.00 | 0.00 | 0.00 | 85 | 1010.4 | |
| 20260904223529 | 26 | 0.0 | 0.0 | 0.00 | 0.00 | 0.00 | 85 | 1010.6 | |
| 20260904222610 | 26 | 0.0 | 0.0 | 0.00 | 0.00 | 0.00 | 85 | 1010.8 | |
| 20260904221528 | 26 | 0.0 | 0.0 | 0.00 | 0.00 | 0.00 | 83 | 1010.7 | |
| 20260904220549 | 27 | 0.0 | 0.0 | 0.00 | 0.00 | 0.00 | 81 | 1011.0 | |
| 20260904215529 | 27 | 0.0 | 0.0 | 0.00 | 0.00 | 0.00 | 78 | 1011.9 | |
| 20260904214528 | 27 | 0.0 | 0.0 | 0.00 | 0.00 | 0.00 | 79 | 1012.2 | |
| 20260904213528 | 27 | 0.0 | 0.0 | 0.00 | 0.00 | 0.00 | 79 | 1011.8 | |
| 20260904212528 | 27 | 0.0 | 0.0 | 0.00 | 0.00 | 0.00 | 78 | 1011.6 | |
| 20260904211529 | 28 | 0.0 | 0.0 | 0.00 | 0.00 | 0.00 | 80 | 1011.2 | |
| 20260904210529 | 28 | 0.0 | 0.0 | 0.00 | 0.00 | 0.00 | 82 | 1011.2 | |
| 20260904205528 | 28 | 0.0 | 0.0 | 0.00 | 0.00 | 0.00 | 83 | 1010.7 | |
| 20260904204527 | 28 | 0.0 | 0.0 | 0.00 | 0.00 | 0.00 | 83 | 1010.7 | |
| 20260904203528 | 28 | 0.0 | 0.0 | 0.00 | 0.00 | 0.00 | 81 | 1011.0 | |
| 20260904202528 | 28 | 0.0 | 0.0 | 0.00 | 0.00 | 0.00 | 80 | 1010.7 | |
| 20260904201528 | 29 | 0.0 | 0.0 | 0.00 | 0.00 | 0.00 | 80 | 1010.8 | |
| 20260904200548 | 30 | 0.0 | 0.0 | 0.00 | 0.00 | 0.00 | 77 | 1010.3 | |
| 20260904195527 | 31 | 0.0 | 0.0 | 0.00 | 0.00 | 0.00 | 72 | 1010.3 | |
| 20260904194530 | 32 | 0.0 | 0.0 | 0.00 | 0.00 | 0.00 | 70 | 1010.9 | |
| 20260904193548 | 33 | 0.0 | 0.0 | 0.00 | 0.00 | 0.00 | 66 | 1011.1 | |
| 20260904192529 | 34 | 0.0 | 0.0 | 0.00 | 0.00 | 0.00 | 63 | 1010.9 | |
| 20260904191530 | 35 | 0.0 | 0.0 | 0.00 | 0.00 | 0.00 | 62 | 1011.2 | |
| 20260904190528 | 35 | 0.0 | 0.0 | 0.00 | 0.00 | 0.00 | 59 | 1011.0 | |
| 20260904185529 | 35 | 0.0 | 0.0 | 0.00 | 0.00 | 0.00 | 60 | 1011.1 | |
| 20260904184528 | 35 | 0.0 | 0.0 | 0.00 | 0.00 | 0.00 | 59 | 1011.3 | |
| 20260904183550 | 34 | 0.0 | 0.0 | 0.00 | 0.00 | 0.00 | 62 | 1011.6 | |
| 20260904182530 | 33 | 0.0 | 0.0 | 0.00 | 0.00 | 0.00 | 64 | 1011.7 | |
| 20260904181550 | 33 | 0.0 | 0.0 | 0.00 | 0.00 | 0.00 | 63 | 1011.8 | |
| 20260904180528 | 33 | 0.0 | 0.0 | 0.00 | 0.00 | 0.00 | 68 | 1011.9 | |
| 20260904175530 | 33 | 0.0 | 0.0 | 0.00 | 0.00 | 0.00 | 62 | 1012.1 | |
| 20260904174530 | 32 | 0.0 | 0.0 | 0.00 | 0.00 | 0.00 | 63 | 1012.2 | |
| 20260904173530 | 32 | 0.0 | 0.0 | 0.00 | 0.00 | 0.00 | 66 | 1012.2 | |
| 20260904172530 | 32 | 0.0 | 0.0 | 0.00 | 0.00 | 0.00 | 66 | 1012.4 | |
| 20260904171529 | 32 | 0.0 | 0.0 | 0.00 | 0.00 | 0.00 | 63 | 1012.4 | |
| 20260904170528 | 32 | 0.0 | 0.0 | 0.00 | 0.00 | 0.00 | 66 | 1012.4 | |
| 20260904165529 | 32 | 0.0 | 0.0 | 0.00 | 0.00 | 0.00 | 66 | 1012.4 | |
| 20260904164529 | 32 | 0.0 | 0.0 | 0.00 | 0.00 | 0.00 | 67 | 1012.6 | |
| 20260904163529 | 32 | 0.0 | 0.0 | 0.00 | 0.00 | 0.00 | 66 | 1012.7 | |
| 20260904162530 | 31 | 0.0 | 0.0 | 0.00 | 0.00 | 0.00 | 66 | 1012.9 | |
| 20260904161532 | 31 | 0.0 | 0.0 | 0.00 | 0.00 | 0.00 | 67 | 1012.9 | |
| 20260904160530 | 31 | 0.0 | 0.0 | 0.00 | 0.00 | 0.00 | 69 | 1012.9 | |
| 20260904155530 | 31 | 0.0 | 0.0 | 0.00 | 0.00 | 0.00 | 69 | 1012.9 | |
| 20260904154529 | 31 | 0.0 | 0.0 | 0.00 | 0.00 | 0.00 | 73 | 1013.0 | |
| 20260904153529 | 30 | 0.0 | 0.0 | 0.00 | 0.00 | 0.00 | 73 | 1013.0 | |
| 20260904152529 | 30 | 0.0 | 0.0 | 0.00 | 0.00 | 0.00 | 76 | 1013.0 | |
| 20260904151530 | 30 | 0.0 | 0.0 | 0.00 | 0.00 | 0.00 | 77 | 1013.1 | |
| 20260904150530 | 29 | 0.0 | 0.0 | 0.00 | 0.00 | 0.00 | 80 | 1013.2 | |
| 20260904145530 | 29 | 0.0 | 0.0 | 0.00 | 0.00 | 0.00 | 85 | 1013.2 | |
| 20260904144530 | 28 | 0.0 | 0.0 | 0.00 | 0.00 | 0.00 | 85 | 1013.2 | |
| 20260904143529 | 27 | 0.0 | 0.0 | 0.00 | 0.00 | 0.00 | 89 | 1013.4 | |
| 20260904142529 | 27 | 0.0 | 0.0 | 0.00 | 0.00 | 0.00 | 91 | 1013.3 | |
| 20260904141550 | 26 | 0.0 | 0.0 | 0.00 | 0.00 | 0.00 | 91 | 1013.4 | |
| 20260904140530 | 26 | 0.0 | 0.0 | 0.00 | 0.00 | 0.00 | 88 | 1013.3 | |
| 20260904135529 | 25 | 0.0 | 0.0 | 0.00 | 0.00 | 0.00 | 87 | 1013.2 | |
| 20260904134549 | 25 | 0.0 | 0.0 | 0.00 | 0.00 | 0.00 | 85 | 1013.2 | |
| 20260904133529 | 24 | 0.0 | 0.0 | 0.00 | 0.00 | 0.00 | 75 | 1013.4 | |
| 20260904132529 | 23 | 0.0 | 0.0 | 0.00 | 0.00 | 0.00 | 72 | 1013.4 | |
| 20260904131530 | 23 | 0.0 | 0.0 | 0.00 | 0.00 | 0.00 | 46 | 1013.4 | |
| 20260904130529 | 23 | 0.0 | 0.0 | 0.00 | 0.00 | 0.00 | 44 | 1013.4 | |
| 20260904125550 | 23 | 0.0 | 0.0 | 0.00 | 0.00 | 0.00 | 44 | 1013.4 | |
| 20260904124529 | 22 | 0.0 | 0.0 | 0.00 | 0.00 | 0.00 | 45 | 1013.3 | |
| 20260904123549 | 22 | 0.0 | 0.0 | 0.00 | 0.00 | 0.00 | 45 | 1013.0 | |
| 20260904122529 | 22 | 0.0 | 0.0 | 0.00 | 0.00 | 0.00 | 46 | 1012.8 | |
| 20260904121529 | 22 | 0.0 | 0.0 | 0.00 | 0.00 | 0.00 | 47 | 1012.8 | |
| 20260904120528 | 22 | 0.0 | 0.0 | 0.00 | 0.00 | 0.00 | 48 | 1012.8 | |
| 20260904115547 | -17 | 0.0 | 0.0 | 0.00 | 0.00 | 0.00 | |||
| 20260904114528 | -17 | 0.0 | 0.0 | 0.00 | 0.00 | 0.00 | |||
| 20260904114048 | -17 | 0.0 | 0.0 | 0.00 | 0.00 | 0.00 | |||
| 20260904113522 | -17 | 0.0 | 0.0 | 0.00 | 0.00 | 0.00 | |||
| 20260904113027 | -17 | 0.0 | 0.0 | 0.00 | 0.00 | 0.00 | |||
| 20260904112027 | -17 | 0.0 | 0.0 | 0.00 | 0.00 | 0.00 | |||
| 20260904111603 | -17 | 0.0 | 0.0 | 0.00 | 0.00 | 0.00 | |||
| 20260904111018 | -17 | 0.0 | 0.0 | 0.00 | 0.00 | 0.00 | |||
| 20260904110547 | -17 | 0.0 | 0.0 | 0.00 | 0.00 | 0.00 | |||
| 20260904105527 | -17 | 0.0 | 0.0 | 0.00 | 0.00 | 0.00 | |||
| 20260904105109 | -17 | 0.0 | 0.0 | 0.00 | 0.00 | 0.00 | |||
| 20260904104522 | -17 | 0.0 | 0.0 | 0.00 | 0.00 | 0.00 | |||
| 20260904104027 | -17 | 0.0 | 0.0 | 0.00 | 0.00 | 0.00 | |||
| 20260904103027 | -17 | 0.0 | 0.0 | 0.00 | 0.00 | 0.00 | |||
| 20260904102545 | -17 | 0.0 | 0.0 | 0.00 | 0.00 | 0.00 | |||
| 20260904102118 | -17 | 0.0 | 0.0 | 0.00 | 0.00 | 0.00 | |||
| 20260904101527 | -17 | 0.0 | 0.0 | 0.00 | 0.00 | 0.00 | |||
| 20260904100547 | -17 | 0.0 | 0.0 | 0.00 | 0.00 | 0.00 | |||
| 20260904100046 | -17 | 0.0 | 0.0 | 0.00 | 0.00 | 0.00 | |||
| 20260904095540 | -17 | 0.0 | 0.0 | 0.00 | 0.00 | 0.00 | |||
| 20260904095047 | -17 | 0.0 | 0.0 | 0.00 | 0.00 | 0.00 | |||
| 20260904094027 | -17 | 0.0 | 0.0 | 0.00 | 0.00 | 0.00 | |||
| 20260904093548 | -17 | 0.0 | 0.0 | 0.00 | 0.00 | 0.00 | |||
| 20260904093022 | -17 | 0.0 | 0.0 | 0.00 | 0.00 | 0.00 | |||
| 20260904092528 | -17 | 0.0 | 0.0 | 0.00 | 0.00 | 0.00 | |||
| 20260904091527 | -17 | 0.0 | 0.0 | 0.00 | 0.00 | 0.00 | |||
| 20260904091051 | -17 | 0.0 | 0.0 | 0.00 | 0.00 | 0.00 | |||
| 20260904090546 | -17 | 0.0 | 0.0 | 0.00 | 0.00 | 0.00 | |||
| 20260904090027 | -17 | 0.0 | 0.0 | 0.00 | 0.00 | 0.00 | |||
| 20260904085027 | -17 | 0.0 | 0.0 | 0.00 | 0.00 | 0.00 | |||
| 20260904084548 | -17 | 0.0 | 0.0 | 0.00 | 0.00 | 0.00 | |||
| 20260904084021 | -17 | 0.0 | 0.0 | 0.00 | 0.00 | 0.00 | |||
| 20260904083528 | -17 | 0.0 | 0.0 | 0.00 | 0.00 | 0.00 | |||
| 20260904082527 | -17 | 0.0 | 0.0 | 0.00 | 0.00 | 0.00 | |||
| 20260904082048 | -17 | 0.0 | 0.0 | 0.00 | 0.00 | 0.00 | |||
| 20260904081543 | -17 | 0.0 | 0.0 | 0.00 | 0.00 | 0.00 | |||
| 20260904081027 | -17 | 0.0 | 0.0 | 0.00 | 0.00 | 0.00 | |||
| 20260904080027 | -17 | 0.0 | 0.0 | 0.00 | 0.00 | 0.00 | |||
| 20260904075540 | -17 | 0.0 | 0.0 | 0.00 | 0.00 | 0.00 | |||
| 20260904075015 | -17 | 0.0 | 0.0 | 0.00 | 0.00 | 0.00 | |||
| 20260904074527 | -17 | 0.0 | 0.0 | 0.00 | 0.00 | 0.00 |